Time,TemperatureF,DewpointF,PressureIn,WindDirection,WindDirectionDegrees,WindSpeedMPH,WindSpeedGustMPH,Humidity,HourlyPrecipIn,Conditions,Clouds,dailyrainin,SoftwareType,DateUTC
2013-05-29 00:00:00,52.0,42.6,30.28,NNW,337,0.0,0.0,70,0.00,,,0.00,WUHU21623XXSP,2013-05-29 04:00:00,
2013-05-29 00:01:00,52.0,42.6,30.28,NNW,337,0.0,0.0,70,0.00,,,0.00,WUHU21623XXSP,2013-05-29 04:01:00,
2013-05-29 00:06:00,52.0,42.6,30.28,NNW,337,0.0,0.0,70,0.00,,,0.00,WUHU21623XXSP,2013-05-29 04:06:00,
2013-05-29 00:11:00,51.8,42.8,30.28,NNW,337,0.0,0.0,71,0.00,,,0.00,WUHU21623XXSP,2013-05-29 04:11:00,
2013-05-29 00:16:00,51.8,42.8,30.28,NNW,337,0.0,0.0,71,0.00,,,0.00,WUHU21623XXSP,2013-05-29 04:16:00,
2013-05-29 00:21:00,51.8,42.8,30.28,NNW,337,0.0,0.0,71,0.00,,,0.00,WUHU21623XXSP,2013-05-29 04:21:00,
2013-05-29 00:26:00,52.0,42.9,30.28,NNW,337,0.0,0.0,71,0.00,,,0.00,WUHU21623XXSP,2013-05-29 04:26:00,
2013-05-29 00:31:00,52.0,42.9,30.28,NNW,337,0.0,0.0,71,0.00,,,0.00,WUHU21623XXSP,2013-05-29 04:31:00,
2013-05-29 00:36:00,52.0,42.9,30.28,NNW,337,0.0,0.0,71,0.00,,,0.00,WUHU21623XXSP,2013-05-29 04:36:00,
2013-05-29 00:41:00,52.0,42.9,30.28,NNW,337,0.0,0.0,71,0.00,,,0.00,WUHU21623XXSP,2013-05-29 04:41:00,
2013-05-29 00:46:00,52.0,42.9,30.28,NNW,337,0.0,0.0,71,0.00,,,0.00,WUHU21623XXSP,2013-05-29 04:46:00,
2013-05-29 00:51:00,52.0,42.9,30.28,NNW,337,0.0,0.0,71,0.00,,,0.00,WUHU21623XXSP,2013-05-29 04:51:00,
2013-05-29 00:56:00,51.8,42.8,30.28,NNW,337,0.0,0.0,71,0.00,,,0.00,WUHU21623XXSP,2013-05-29 04:56:00,
2013-05-29 01:01:00,51.8,43.1,30.27,NNW,337,0.0,0.0,72,0.00,,,0.00,WUHU21623XXSP,2013-05-29 05:01:00,
2013-05-29 01:06:00,51.6,42.9,30.27,NNW,337,0.0,0.0,72,0.00,,,0.00,WUHU21623XXSP,2013-05-29 05:06:00,
2013-05-29 01:11:00,51.6,42.9,30.27,NNW,337,0.0,0.0,72,0.00,,,0.00,WUHU21623XXSP,2013-05-29 05:11:00,
2013-05-29 01:16:00,51.6,43.3,30.27,NNW,337,0.0,0.0,73,0.00,,,0.00,WUHU21623XXSP,2013-05-29 05:16:00,
2013-05-29 01:21:00,51.6,43.3,30.27,NNW,337,0.0,0.0,73,0.00,,,0.00,WUHU21623XXSP,2013-05-29 05:21:00,
2013-05-29 01:26:00,51.6,43.3,30.28,NNW,337,0.0,0.0,73,0.00,,,0.00,WUHU21623XXSP,2013-05-29 05:26:00,
2013-05-29 01:31:00,51.6,43.6,30.27,NNW,337,0.0,0.0,74,0.00,,,0.00,WUHU21623XXSP,2013-05-29 05:31:00,
2013-05-29 01:36:00,51.6,43.6,30.27,NNW,337,0.0,0.0,74,0.00,,,0.00,WUHU21623XXSP,2013-05-29 05:36:00,
2013-05-29 01:41:00,51.4,43.4,30.26,NNW,337,0.0,0.0,74,0.00,,,0.00,WUHU21623XXSP,2013-05-29 05:41:00,
2013-05-29 01:46:00,51.4,43.4,30.26,NNW,337,0.0,0.0,74,0.00,,,0.00,WUHU21623XXSP,2013-05-29 05:46:00,
2013-05-29 01:51:00,51.3,43.6,30.26,NNW,337,0.0,0.0,75,0.00,,,0.00,WUHU21623XXSP,2013-05-29 05:51:00,
2013-05-29 01:56:00,51.3,43.6,30.26,NNW,337,0.0,0.0,75,0.00,,,0.00,WUHU21623XXSP,2013-05-29 05:56:00,
2013-05-29 02:01:00,51.1,43.4,30.26,NNW,337,0.0,0.0,75,0.00,,,0.00,WUHU21623XXSP,2013-05-29 06:01:00,
2013-05-29 02:06:00,51.1,43.8,30.26,NNW,337,0.0,0.0,76,0.00,,,0.00,WUHU21623XXSP,2013-05-29 06:06:00,
2013-05-29 02:11:00,51.1,43.8,30.26,NNW,337,0.0,0.0,76,0.00,,,0.00,WUHU21623XXSP,2013-05-29 06:11:00,
2013-05-29 02:16:00,51.1,43.8,30.26,NNW,337,0.0,0.0,76,0.00,,,0.00,WUHU21623XXSP,2013-05-29 06:16:00,
2013-05-29 02:21:00,51.1,44.1,30.26,NNW,337,0.0,0.0,77,0.00,,,0.00,WUHU21623XXSP,2013-05-29 06:21:00,
2013-05-29 02:26:00,50.9,43.9,30.26,NNW,337,0.0,0.0,77,0.00,,,0.00,WUHU21623XXSP,2013-05-29 06:26:00,
2013-05-29 02:31:00,50.9,43.9,30.26,NNW,337,0.0,0.0,77,0.00,,,0.00,WUHU21623XXSP,2013-05-29 06:31:00,
2013-05-29 02:36:00,50.9,43.9,30.26,NNW,337,0.0,0.0,77,0.00,,,0.00,WUHU21623XXSP,2013-05-29 06:36:00,
2013-05-29 02:41:00,50.9,43.9,30.26,NNW,337,0.0,0.0,77,0.00,,,0.00,WUHU21623XXSP,2013-05-29 06:41:00,
2013-05-29 02:46:00,50.9,43.9,30.26,NNW,337,0.0,0.0,77,0.00,,,0.00,WUHU21623XXSP,2013-05-29 06:46:00,
2013-05-29 02:51:00,50.9,43.9,30.25,NNW,337,0.0,0.0,77,0.00,,,0.00,WUHU21623XXSP,2013-05-29 06:51:00,
2013-05-29 02:56:00,50.9,43.9,30.25,NNW,337,0.0,0.0,77,0.00,,,0.00,WUHU21623XXSP,2013-05-29 06:56:00,
2013-05-29 03:01:00,51.1,44.5,30.25,NNW,337,0.0,0.0,78,0.00,,,0.00,WUHU21623XXSP,2013-05-29 07:01:00,
2013-05-29 03:06:00,51.1,44.1,30.25,NNW,337,0.0,0.0,77,0.00,,,0.00,WUHU21623XXSP,2013-05-29 07:06:00,
2013-05-29 03:11:00,50.9,43.9,30.24,NNW,337,0.0,0.0,77,0.00,,,0.00,WUHU21623XXSP,2013-05-29 07:11:00,
2013-05-29 03:16:00,50.9,43.9,30.24,NNW,337,0.0,0.0,77,0.00,,,0.00,WUHU21623XXSP,2013-05-29 07:16:00,
2013-05-29 03:21:00,50.7,43.4,30.24,NNW,337,0.0,0.0,76,0.00,,,0.00,WUHU21623XXSP,2013-05-29 07:21:00,
2013-05-29 03:26:00,50.5,43.2,30.23,NNW,337,0.0,0.0,76,0.00,,,0.00,WUHU21623XXSP,2013-05-29 07:26:00,
2013-05-29 03:31:00,50.4,43.4,30.23,NNW,337,0.0,0.0,77,0.00,,,0.00,WUHU21623XXSP,2013-05-29 07:31:00,
2013-05-29 03:36:00,50.0,43.4,30.23,NNW,337,0.0,0.0,78,0.00,,,0.00,WUHU21623XXSP,2013-05-29 07:36:00,
2013-05-29 03:41:00,49.8,43.2,30.23,NNW,337,0.0,0.0,78,0.00,,,0.00,WUHU21623XXSP,2013-05-29 07:41:00,
2013-05-29 03:46:00,49.6,43.4,30.23,NNW,337,0.0,0.0,79,0.00,,,0.00,WUHU21623XXSP,2013-05-29 07:46:00,
2013-05-29 03:51:00,49.3,43.3,30.23,NNW,337,0.0,0.0,80,0.00,,,0.00,WUHU21623XXSP,2013-05-29 07:51:00,
2013-05-29 03:56:00,49.3,43.3,30.23,NNW,337,0.0,0.0,80,0.00,,,0.00,WUHU21623XXSP,2013-05-29 07:56:00,
2013-05-29 04:01:00,49.1,43.5,30.23,NNW,337,0.0,0.0,81,0.00,,,0.00,WUHU21623XXSP,2013-05-29 08:01:00,
2013-05-29 04:06:00,49.1,43.5,30.23,NNW,337,0.0,0.0,81,0.00,,,0.00,WUHU21623XXSP,2013-05-29 08:06:00,
2013-05-29 04:11:00,48.9,43.3,30.23,NNW,337,0.0,0.0,81,0.02,,,0.02,WUHU21623XXSP,2013-05-29 08:11:00,
2013-05-29 04:16:00,48.7,43.4,30.23,NNW,337,0.0,0.0,82,0.02,,,0.02,WUHU21623XXSP,2013-05-29 08:16:00,
2013-05-29 04:21:00,48.7,43.4,30.23,NNW,337,0.0,0.0,82,0.02,,,0.02,WUHU21623XXSP,2013-05-29 08:21:00,
2013-05-29 04:26:00,48.7,43.8,30.24,NNW,337,0.0,0.0,83,0.02,,,0.02,WUHU21623XXSP,2013-05-29 08:26:00,
2013-05-29 04:31:00,48.7,43.8,30.23,NNW,337,0.0,0.0,83,0.02,,,0.02,WUHU21623XXSP,2013-05-29 08:31:00,
2013-05-29 04:36:00,48.7,43.8,30.23,NNW,337,0.0,0.0,83,0.02,,,0.02,WUHU21623XXSP,2013-05-29 08:36:00,
2013-05-29 04:41:00,48.7,44.1,30.23,NNW,337,0.0,0.0,84,0.04,,,0.04,WUHU21623XXSP,2013-05-29 08:41:00,
2013-05-29 04:46:00,48.7,44.1,30.23,NNW,337,0.0,0.0,84,0.04,,,0.04,WUHU21623XXSP,2013-05-29 08:46:00,
2013-05-29 04:51:00,48.7,44.1,30.23,NNW,337,0.0,0.0,84,0.04,,,0.04,WUHU21623XXSP,2013-05-29 08:51:00,
2013-05-29 04:56:00,48.6,43.9,30.23,NNW,337,0.0,0.0,84,0.04,,,0.04,WUHU21623XXSP,2013-05-29 08:56:00,
2013-05-29 05:01:00,48.6,43.9,30.23,NNW,337,0.0,0.0,84,0.04,,,0.04,WUHU21623XXSP,2013-05-29 09:01:00,
2013-05-29 05:06:00,48.6,43.9,30.23,NNW,337,0.0,0.0,84,0.04,,,0.04,WUHU21623XXSP,2013-05-29 09:06:00,
2013-05-29 05:11:00,48.7,44.4,30.24,NNW,337,0.0,0.0,85,0.02,,,0.04,WUHU21623XXSP,2013-05-29 09:11:00,
2013-05-29 05:16:00,48.7,44.4,30.23,NNW,337,0.0,0.0,85,0.02,,,0.04,WUHU21623XXSP,2013-05-29 09:16:00,
2013-05-29 05:21:00,48.7,44.4,30.23,NNW,337,0.0,0.0,85,0.02,,,0.04,WUHU21623XXSP,2013-05-29 09:21:00,
2013-05-29 05:26:00,48.7,44.4,30.23,NNW,337,0.0,0.0,85,0.02,,,0.04,WUHU21623XXSP,2013-05-29 09:26:00,
2013-05-29 05:31:00,48.7,44.7,30.24,NNW,337,0.0,0.0,86,0.02,,,0.04,WUHU21623XXSP,2013-05-29 09:31:00,
2013-05-29 05:36:00,48.7,44.7,30.23,NNW,337,0.0,0.0,86,0.00,,,0.04,WUHU21623XXSP,2013-05-29 09:36:00,
2013-05-29 05:41:00,48.7,44.7,30.24,NNW,337,0.0,0.0,86,0.00,,,0.04,WUHU21623XXSP,2013-05-29 09:41:00,
2013-05-29 05:46:00,48.7,44.7,30.24,NNW,337,0.0,0.0,86,0.00,,,0.04,WUHU21623XXSP,2013-05-29 09:46:00,
2013-05-29 05:51:00,48.7,44.7,30.24,NNW,337,0.0,0.0,86,0.00,,,0.04,WUHU21623XXSP,2013-05-29 09:51:00,
2013-05-29 05:56:00,48.7,44.7,30.24,NNW,337,0.0,0.0,86,0.00,,,0.04,WUHU21623XXSP,2013-05-29 09:56:00,
2013-05-29 06:01:00,48.7,44.7,30.24,NNW,337,0.0,0.0,86,0.00,,,0.04,WUHU21623XXSP,2013-05-29 10:01:00,
2013-05-29 06:06:00,48.7,44.7,30.24,NNW,337,0.0,0.0,86,0.02,,,0.06,WUHU21623XXSP,2013-05-29 10:06:00,
2013-05-29 06:11:00,48.7,44.7,30.24,NNW,337,0.0,0.0,86,0.02,,,0.06,WUHU21623XXSP,2013-05-29 10:11:00,
2013-05-29 06:16:00,48.9,45.2,30.24,NNW,337,0.0,0.0,87,0.04,,,0.08,WUHU21623XXSP,2013-05-29 10:16:00,
2013-05-29 06:21:00,48.7,45.0,30.25,NNW,337,0.0,0.0,87,0.04,,,0.08,WUHU21623XXSP,2013-05-29 10:21:00,
2013-05-29 06:26:00,48.9,45.2,30.24,NNW,337,0.0,0.0,87,0.04,,,0.08,WUHU21623XXSP,2013-05-29 10:26:00,
2013-05-29 06:31:00,48.9,45.2,30.24,NNW,337,0.0,0.0,87,0.04,,,0.08,WUHU21623XXSP,2013-05-29 10:31:00,
2013-05-29 06:36:00,48.9,45.2,30.24,NNW,337,0.0,0.0,87,0.04,,,0.08,WUHU21623XXSP,2013-05-29 10:36:00,
2013-05-29 06:41:00,49.1,45.4,30.24,NNW,337,0.0,0.0,87,0.04,,,0.08,WUHU21623XXSP,2013-05-29 10:41:00,
2013-05-29 06:46:00,48.9,45.2,30.25,NNW,337,0.0,0.0,87,0.06,,,0.10,WUHU21623XXSP,2013-05-29 10:46:00,
2013-05-29 06:51:00,48.9,45.2,30.24,NNW,337,0.0,0.0,87,0.06,,,0.10,WUHU21623XXSP,2013-05-29 10:51:00,
2013-05-29 06:56:00,48.9,45.2,30.24,NNW,337,0.0,0.0,87,0.06,,,0.10,WUHU21623XXSP,2013-05-29 10:56:00,
2013-05-29 07:01:00,48.9,45.2,30.24,NNW,337,0.0,0.0,87,0.06,,,0.12,WUHU21623XXSP,2013-05-29 11:01:00,
2013-05-29 07:06:00,48.9,45.2,30.24,NNW,337,0.0,0.0,87,0.06,,,0.12,WUHU21623XXSP,2013-05-29 11:06:00,
2013-05-29 07:11:00,48.9,45.2,30.23,NNW,337,0.0,0.0,87,0.06,,,0.12,WUHU21623XXSP,2013-05-29 11:11:00,
2013-05-29 07:16:00,49.1,45.4,30.24,NNW,337,0.0,0.0,87,0.04,,,0.12,WUHU21623XXSP,2013-05-29 11:16:00,
2013-05-29 07:21:00,49.3,45.5,30.23,NNW,337,0.0,0.0,87,0.04,,,0.12,WUHU21623XXSP,2013-05-29 11:21:00,
2013-05-29 07:26:00,49.3,45.5,30.23,NNW,337,0.0,0.0,87,0.04,,,0.12,WUHU21623XXSP,2013-05-29 11:26:00,
2013-05-29 07:31:00,49.3,45.5,30.23,NNW,337,0.0,0.0,87,0.04,,,0.12,WUHU21623XXSP,2013-05-29 11:31:00,
2013-05-29 07:36:00,49.3,45.8,30.23,NNW,337,0.0,0.0,88,0.04,,,0.12,WUHU21623XXSP,2013-05-29 11:36:00,
2013-05-29 07:41:00,49.5,46.0,30.23,NNW,337,0.0,0.0,88,0.04,,,0.12,WUHU21623XXSP,2013-05-29 11:41:00,
2013-05-29 07:46:00,49.5,46.0,30.23,NNW,337,0.0,0.0,88,0.02,,,0.12,WUHU21623XXSP,2013-05-29 11:46:00,
2013-05-29 07:51:00,49.6,46.2,30.24,NNW,337,0.0,0.0,88,0.02,,,0.12,WUHU21623XXSP,2013-05-29 11:51:00,
2013-05-29 07:56:00,49.6,46.2,30.23,NNW,337,0.0,0.0,88,0.02,,,0.12,WUHU21623XXSP,2013-05-29 11:56:00,
2013-05-29 08:01:00,49.6,46.2,30.24,NNW,337,0.0,0.0,88,0.00,,,0.12,WUHU21623XXSP,2013-05-29 12:01:00,
2013-05-29 08:06:00,49.6,46.2,30.23,NNW,337,0.0,0.0,88,0.00,,,0.12,WUHU21623XXSP,2013-05-29 12:06:00,
2013-05-29 08:11:00,49.6,46.2,30.23,NNW,337,0.0,0.0,88,0.00,,,0.12,WUHU21623XXSP,2013-05-29 12:11:00,
2013-05-29 08:16:00,49.6,46.2,30.23,NNW,337,0.0,0.0,88,0.00,,,0.12,WUHU21623XXSP,2013-05-29 12:16:00,
2013-05-29 08:21:00,49.6,46.2,30.23,NNW,337,0.0,0.0,88,0.00,,,0.12,WUHU21623XXSP,2013-05-29 12:21:00,
2013-05-29 08:26:00,49.6,46.2,30.23,NNW,337,0.0,0.0,88,0.00,,,0.12,WUHU21623XXSP,2013-05-29 12:26:00,
2013-05-29 08:31:00,49.6,46.2,30.23,NNW,337,0.0,0.0,88,0.00,,,0.12,WUHU21623XXSP,2013-05-29 12:31:00,
2013-05-29 08:36:00,49.8,46.3,30.23,NNW,337,0.0,0.0,88,0.00,,,0.12,WUHU21623XXSP,2013-05-29 12:36:00,
2013-05-29 08:41:00,49.8,46.3,30.23,NNW,337,0.0,0.0,88,0.00,,,0.12,WUHU21623XXSP,2013-05-29 12:41:00,
2013-05-29 08:46:00,49.8,46.3,30.24,NNW,337,0.0,0.0,88,0.00,,,0.12,WUHU21623XXSP,2013-05-29 12:46:00,
2013-05-29 08:51:00,50.2,46.7,30.23,NNW,337,0.0,0.0,88,0.00,,,0.12,WUHU21623XXSP,2013-05-29 12:51:00,
2013-05-29 08:56:00,50.4,46.9,30.23,NNW,337,0.0,0.0,88,0.00,,,0.12,WUHU21623XXSP,2013-05-29 12:56:00,
2013-05-29 09:01:00,50.5,47.0,30.23,NNW,337,0.0,0.0,88,0.00,,,0.12,WUHU21623XXSP,2013-05-29 13:01:00,
2013-05-29 09:06:00,50.5,47.0,30.23,NNW,337,0.0,0.0,88,0.00,,,0.12,WUHU21623XXSP,2013-05-29 13:06:00,
2013-05-29 09:11:00,50.5,47.0,30.23,NNW,337,0.0,0.0,88,0.00,,,0.12,WUHU21623XXSP,2013-05-29 13:11:00,
2013-05-29 09:16:00,50.5,47.4,30.23,NNW,337,0.0,0.0,89,0.00,,,0.12,WUHU21623XXSP,2013-05-29 13:16:00,
2013-05-29 09:21:00,50.7,47.5,30.23,NNW,337,0.0,0.0,89,0.00,,,0.12,WUHU21623XXSP,2013-05-29 13:21:00,
2013-05-29 09:26:00,50.7,47.5,30.23,NNW,337,0.0,0.0,89,0.00,,,0.12,WUHU21623XXSP,2013-05-29 13:26:00,
2013-05-29 09:31:00,50.7,47.5,30.23,NNW,337,0.0,0.0,89,0.00,,,0.12,WUHU21623XXSP,2013-05-29 13:31:00,
2013-05-29 09:36:00,50.9,47.7,30.22,NNW,337,0.0,0.0,89,0.00,,,0.12,WUHU21623XXSP,2013-05-29 13:36:00,
2013-05-29 09:41:00,51.1,47.9,30.22,NNW,337,0.0,0.0,89,0.00,,,0.12,WUHU21623XXSP,2013-05-29 13:41:00,
2013-05-29 09:46:00,51.3,48.1,30.22,NNW,337,0.0,0.0,89,0.00,,,0.12,WUHU21623XXSP,2013-05-29 13:46:00,
2013-05-29 09:51:00,51.4,48.3,30.22,NNW,337,0.0,0.0,89,0.00,,,0.12,WUHU21623XXSP,2013-05-29 13:51:00,
2013-05-29 09:56:00,51.6,48.4,30.22,NNW,337,0.0,0.0,89,0.00,,,0.12,WUHU21623XXSP,2013-05-29 13:56:00,
2013-05-29 10:01:00,51.6,48.4,30.22,NNW,337,0.0,0.0,89,0.00,,,0.12,WUHU21623XXSP,2013-05-29 14:01:00,
2013-05-29 10:06:00,51.6,48.4,30.22,NNW,337,0.0,0.0,89,0.00,,,0.12,WUHU21623XXSP,2013-05-29 14:06:00,
2013-05-29 10:11:00,51.6,48.4,30.22,NNW,337,0.0,0.0,89,0.00,,,0.12,WUHU21623XXSP,2013-05-29 14:11:00,
2013-05-29 10:16:00,51.6,48.4,30.21,NNW,337,0.0,0.0,89,0.00,,,0.12,WUHU21623XXSP,2013-05-29 14:16:00,
2013-05-29 10:21:00,51.6,48.4,30.21,NNW,337,0.0,0.0,89,0.00,,,0.12,WUHU21623XXSP,2013-05-29 14:21:00,
2013-05-29 10:26:00,51.6,48.4,30.21,NNW,337,0.0,0.0,89,0.00,,,0.12,WUHU21623XXSP,2013-05-29 14:26:00,
2013-05-29 10:31:00,51.8,48.6,30.21,NNW,337,0.0,0.0,89,0.02,,,0.15,WUHU21623XXSP,2013-05-29 14:31:00,
2013-05-29 10:36:00,51.8,48.6,30.21,NNW,337,0.0,0.0,89,0.02,,,0.15,WUHU21623XXSP,2013-05-29 14:36:00,
2013-05-29 10:41:00,52.0,48.8,30.21,NNW,337,0.0,0.0,89,0.02,,,0.15,WUHU21623XXSP,2013-05-29 14:41:00,
2013-05-29 10:46:00,52.0,48.8,30.20,NNW,337,0.0,0.0,89,0.04,,,0.17,WUHU21623XXSP,2013-05-29 14:46:00,
2013-05-29 10:51:00,52.2,49.0,30.20,NNW,337,0.0,0.0,89,0.04,,,0.17,WUHU21623XXSP,2013-05-29 14:51:00,
2013-05-29 10:56:00,52.3,49.2,30.20,NNW,337,0.0,0.0,89,0.04,,,0.17,WUHU21623XXSP,2013-05-29 14:56:00,
2013-05-29 11:01:00,52.5,49.3,30.19,NE,45,0.0,0.0,89,0.04,,,0.17,WUHU21623XXSP,2013-05-29 15:01:00,
2013-05-29 11:06:00,52.7,49.5,30.18,NE,45,0.0,0.0,89,0.04,,,0.17,WUHU21623XXSP,2013-05-29 15:06:00,
2013-05-29 11:11:00,52.9,49.7,30.18,ESE,112,0.0,0.0,89,0.04,,,0.17,WUHU21623XXSP,2013-05-29 15:11:00,
2013-05-29 11:16:00,53.2,50.1,30.18,ESE,112,0.0,0.0,89,0.04,,,0.17,WUHU21623XXSP,2013-05-29 15:16:00,
2013-05-29 11:21:00,53.2,50.1,30.19,ESE,112,0.0,0.0,89,0.04,,,0.17,WUHU21623XXSP,2013-05-29 15:21:00,
2013-05-29 11:26:00,53.2,50.1,30.17,ESE,112,0.0,0.0,89,0.02,,,0.17,WUHU21623XXSP,2013-05-29 15:26:00,
2013-05-29 11:31:00,53.4,50.2,30.17,ESE,112,0.0,0.0,89,0.02,,,0.17,WUHU21623XXSP,2013-05-29 15:31:00,
2013-05-29 11:36:00,53.8,50.9,30.18,ESE,112,0.0,0.0,90,0.02,,,0.17,WUHU21623XXSP,2013-05-29 15:36:00,
2013-05-29 11:41:00,54.0,51.1,30.18,ESE,112,0.0,0.0,90,0.02,,,0.17,WUHU21623XXSP,2013-05-29 15:41:00,
2013-05-29 11:46:00,54.1,51.3,30.18,ESE,112,0.0,0.0,90,0.00,,,0.17,WUHU21623XXSP,2013-05-29 15:46:00,
2013-05-29 11:51:00,54.1,51.3,30.19,ESE,112,0.0,0.0,90,0.00,,,0.17,WUHU21623XXSP,2013-05-29 15:51:00,
2013-05-29 11:56:00,54.1,51.3,30.20,ESE,112,0.0,0.0,90,0.00,,,0.17,WUHU21623XXSP,2013-05-29 15:56:00,
2013-05-29 12:01:00,54.3,51.4,30.20,ESE,112,0.0,0.0,90,0.00,,,0.17,WUHU21623XXSP,2013-05-29 16:01:00,
2013-05-29 12:06:00,54.1,51.4,30.20,ESE,112,0.0,0.0,90,0.00,,,0.17,WUHU21623XXSP,2013-05-29 16:06:00,
2013-05-29 12:11:00,54.1,51.3,30.20,ESE,112,0.0,0.0,90,0.00,,,0.17,WUHU21623XXSP,2013-05-29 16:11:00,
2013-05-29 12:16:00,54.1,51.3,30.20,ESE,112,0.0,0.0,90,0.00,,,0.17,WUHU21623XXSP,2013-05-29 16:16:00,
2013-05-29 12:21:00,54.3,51.4,30.19,ESE,112,0.0,0.0,90,0.00,,,0.17,WUHU21623XXSP,2013-05-29 16:21:00,
2013-05-29 12:26:00,54.3,51.4,30.20,ESE,112,0.0,0.0,90,0.00,,,0.17,WUHU21623XXSP,2013-05-29 16:26:00,
2013-05-29 12:31:00,54.3,51.4,30.20,ESE,112,0.0,0.0,90,0.00,,,0.17,WUHU21623XXSP,2013-05-29 16:31:00,
2013-05-29 12:36:00,54.3,51.4,30.20,ESE,112,0.0,0.0,90,0.00,,,0.17,WUHU21623XXSP,2013-05-29 16:36:00,
2013-05-29 12:41:00,54.3,51.4,30.20,ESE,112,0.0,0.0,90,0.00,,,0.17,WUHU21623XXSP,2013-05-29 16:41:00,
2013-05-29 12:46:00,54.3,51.4,30.20,ESE,112,0.0,0.0,90,0.00,,,0.17,WUHU21623XXSP,2013-05-29 16:46:00,
2013-05-29 12:51:00,54.3,51.4,30.20,ESE,112,0.0,0.0,90,0.00,,,0.17,WUHU21623XXSP,2013-05-29 16:51:00,
2013-05-29 12:56:00,54.5,51.6,30.19,ESE,112,0.0,0.0,90,0.00,,,0.17,WUHU21623XXSP,2013-05-29 16:56:00,
2013-05-29 13:01:00,54.7,51.8,30.19,ESE,112,0.0,0.0,90,0.00,,,0.17,WUHU21623XXSP,2013-05-29 17:01:00,
2013-05-29 13:06:00,54.7,51.8,30.18,ESE,112,0.0,0.0,90,0.00,,,0.17,WUHU21623XXSP,2013-05-29 17:06:00,
2013-05-29 13:11:00,54.9,52.0,30.18,ESE,112,0.0,0.0,90,0.00,,,0.17,WUHU21623XXSP,2013-05-29 17:11:00,
2013-05-29 13:16:00,55.0,52.2,30.19,ESE,112,0.0,0.0,90,0.00,,,0.17,WUHU21623XXSP,2013-05-29 17:16:00,
2013-05-29 13:21:00,55.2,52.3,30.19,ESE,112,0.0,0.0,90,0.00,,,0.17,WUHU21623XXSP,2013-05-29 17:21:00,
2013-05-29 13:26:00,55.2,52.3,30.18,ESE,112,0.0,0.0,90,0.00,,,0.17,WUHU21623XXSP,2013-05-29 17:26:00,
2013-05-29 13:31:00,55.2,52.3,30.18,ESE,112,0.0,0.0,90,0.00,,,0.17,WUHU21623XXSP,2013-05-29 17:31:00,
2013-05-29 13:36:00,55.4,52.5,30.18,ESE,112,0.0,0.0,90,0.00,,,0.17,WUHU21623XXSP,2013-05-29 17:36:00,
2013-05-29 13:41:00,55.6,52.5,30.19,ESE,112,0.0,0.0,90,0.00,,,0.17,WUHU21623XXSP,2013-05-29 17:41:00,
2013-05-29 13:46:00,55.6,52.7,30.19,ESE,112,0.0,0.0,90,0.00,,,0.17,WUHU21623XXSP,2013-05-29 17:46:00,
2013-05-29 13:51:00,55.6,52.7,30.19,ESE,112,0.0,0.0,90,0.00,,,0.17,WUHU21623XXSP,2013-05-29 17:51:00,
2013-05-29 13:56:00,55.6,52.7,30.19,ESE,112,0.0,0.0,90,0.00,,,0.17,WUHU21623XXSP,2013-05-29 17:56:00,
2013-05-29 14:01:00,55.8,52.9,30.18,ESE,112,0.0,0.0,90,0.00,,,0.17,WUHU21623XXSP,2013-05-29 18:01:00,
2013-05-29 14:06:00,55.8,52.9,30.19,ESE,112,0.0,0.0,90,0.00,,,0.17,WUHU21623XXSP,2013-05-29 18:06:00,
2013-05-29 14:11:00,55.8,52.9,30.18,ESE,112,0.0,0.0,90,0.00,,,0.17,WUHU21623XXSP,2013-05-29 18:11:00,
2013-05-29 14:16:00,55.9,53.1,30.18,ESE,112,0.0,0.0,90,0.00,,,0.17,WUHU21623XXSP,2013-05-29 18:16:00,
2013-05-29 14:21:00,55.9,53.1,30.18,ESE,112,0.0,0.0,90,0.00,,,0.17,WUHU21623XXSP,2013-05-29 18:21:00,
2013-05-29 14:26:00,55.9,53.1,30.18,ESE,112,0.0,0.0,90,0.00,,,0.17,WUHU21623XXSP,2013-05-29 18:26:00,
2013-05-29 14:31:00,56.1,53.2,30.18,ESE,112,0.0,0.0,90,0.00,,,0.17,WUHU21623XXSP,2013-05-29 18:31:00,
2013-05-29 14:36:00,56.1,53.2,30.18,ESE,112,0.0,0.0,90,0.00,,,0.17,WUHU21623XXSP,2013-05-29 18:36:00,
2013-05-29 14:41:00,56.1,53.2,30.18,ESE,112,0.0,0.0,90,0.00,,,0.17,WUHU21623XXSP,2013-05-29 18:41:00,
2013-05-29 14:46:00,56.1,53.2,30.18,ESE,112,0.0,0.0,90,0.00,,,0.17,WUHU21623XXSP,2013-05-29 18:46:00,
2013-05-29 14:51:00,56.3,53.4,30.18,ESE,112,0.0,0.0,90,0.00,,,0.17,WUHU21623XXSP,2013-05-29 18:51:00,
2013-05-29 14:56:00,56.5,53.6,30.18,ESE,112,0.0,0.0,90,0.00,,,0.17,WUHU21623XXSP,2013-05-29 18:56:00,
2013-05-29 15:01:00,56.5,53.6,30.18,ESE,112,0.0,0.0,90,0.00,,,0.17,WUHU21623XXSP,2013-05-29 19:01:00,
2013-05-29 15:06:00,56.5,53.6,30.18,ESE,112,0.0,0.0,90,0.00,,,0.17,WUHU21623XXSP,2013-05-29 19:06:00,
2013-05-29 15:11:00,56.5,53.6,30.18,ESE,112,0.0,0.0,90,0.00,,,0.17,WUHU21623XXSP,2013-05-29 19:11:00,
2013-05-29 15:16:00,56.5,53.6,30.18,ESE,112,0.0,0.0,90,0.00,,,0.17,WUHU21623XXSP,2013-05-29 19:16:00,
2013-05-29 15:21:00,56.5,53.6,30.19,ESE,112,0.0,0.0,90,0.00,,,0.17,WUHU21623XXSP,2013-05-29 19:21:00,
2013-05-29 15:26:00,56.5,53.6,30.18,ESE,112,0.0,0.0,90,0.00,,,0.17,WUHU21623XXSP,2013-05-29 19:26:00,
2013-05-29 15:31:00,56.5,53.6,30.18,ESE,112,0.0,0.0,90,0.00,,,0.17,WUHU21623XXSP,2013-05-29 19:31:00,
2013-05-29 15:36:00,56.8,54.0,30.18,ESE,112,0.0,0.0,90,0.00,,,0.17,WUHU21623XXSP,2013-05-29 19:36:00,
2013-05-29 15:41:00,57.0,54.1,30.18,ESE,112,0.0,0.0,90,0.00,,,0.17,WUHU21623XXSP,2013-05-29 19:41:00,
2013-05-29 15:46:00,57.0,54.1,30.18,ESE,112,0.0,0.0,90,0.00,,,0.17,WUHU21623XXSP,2013-05-29 19:46:00,
2013-05-29 15:51:00,57.0,54.1,30.18,ESE,112,0.0,0.0,90,0.00,,,0.17,WUHU21623XXSP,2013-05-29 19:51:00,
2013-05-29 15:56:00,57.0,54.1,30.17,ESE,112,0.0,0.0,90,0.00,,,0.17,WUHU21623XXSP,2013-05-29 19:56:00,
2013-05-29 16:01:00,57.0,54.1,30.17,ESE,112,0.0,0.0,90,0.00,,,0.17,WUHU21623XXSP,2013-05-29 20:01:00,
2013-05-29 16:06:00,57.0,54.1,30.17,ESE,112,0.0,0.0,90,0.00,,,0.17,WUHU21623XXSP,2013-05-29 20:06:00,
2013-05-29 16:11:00,57.0,54.1,30.17,ESE,112,0.0,0.0,90,0.00,,,0.17,WUHU21623XXSP,2013-05-29 20:11:00,
2013-05-29 16:16:00,57.0,54.1,30.18,ESE,112,0.0,0.0,90,0.00,,,0.17,WUHU21623XXSP,2013-05-29 20:16:00,
2013-05-29 16:21:00,57.2,54.3,30.18,ESE,112,0.0,0.0,90,0.00,,,0.17,WUHU21623XXSP,2013-05-29 20:21:00,
2013-05-29 16:26:00,57.2,54.3,30.17,ESE,112,0.0,0.0,90,0.00,,,0.17,WUHU21623XXSP,2013-05-29 20:26:00,
2013-05-29 16:31:00,57.2,54.3,30.17,ESE,112,0.0,0.0,90,0.00,,,0.17,WUHU21623XXSP,2013-05-29 20:31:00,
2013-05-29 16:36:00,57.4,54.5,30.17,ESE,112,0.0,0.0,90,0.00,,,0.17,WUHU21623XXSP,2013-05-29 20:36:00,
2013-05-29 16:41:00,57.4,54.5,30.16,ESE,112,0.0,0.0,90,0.00,,,0.17,WUHU21623XXSP,2013-05-29 20:41:00,
2013-05-29 16:46:00,57.4,54.5,30.16,ESE,112,0.0,0.0,90,0.00,,,0.17,WUHU21623XXSP,2013-05-29 20:46:00,
2013-05-29 16:51:00,57.6,54.7,30.16,ESE,112,0.0,0.0,90,0.00,,,0.17,WUHU21623XXSP,2013-05-29 20:51:00,
2013-05-29 16:56:00,57.6,54.7,30.16,ESE,112,0.0,0.0,90,0.00,,,0.17,WUHU21623XXSP,2013-05-29 20:56:00,
2013-05-29 17:01:00,57.7,54.9,30.16,ESE,112,0.0,0.0,90,0.00,,,0.17,WUHU21623XXSP,2013-05-29 21:01:00,
2013-05-29 17:06:00,57.7,54.9,30.16,ESE,112,0.0,0.0,90,0.00,,,0.17,WUHU21623XXSP,2013-05-29 21:06:00,
2013-05-29 17:10:00,57.7,54.9,30.16,ESE,112,0.0,0.0,90,0.00,,,0.17,WUHU21623XXSP,2013-05-29 21:10:00,
2013-05-29 17:15:00,57.9,55.0,30.16,ESE,112,0.0,0.0,90,0.00,,,0.17,WUHU21623XXSP,2013-05-29 21:15:00,
2013-05-29 17:20:00,57.9,55.0,30.16,ESE,112,0.0,0.0,90,0.00,,,0.17,WUHU21623XXSP,2013-05-29 21:20:00,
2013-05-29 17:25:00,57.9,55.0,30.16,ESE,112,0.0,0.0,90,0.00,,,0.17,WUHU21623XXSP,2013-05-29 21:25:00,
2013-05-29 17:30:00,57.9,55.0,30.16,ESE,112,0.0,0.0,90,0.00,,,0.17,WUHU21623XXSP,2013-05-29 21:30:00,
2013-05-29 17:35:00,57.9,55.0,30.16,ESE,112,0.0,0.0,90,0.00,,,0.17,WUHU21623XXSP,2013-05-29 21:35:00,
2013-05-29 17:40:00,57.9,55.0,30.16,ESE,112,0.0,0.0,90,0.00,,,0.17,WUHU21623XXSP,2013-05-29 21:40:00,
2013-05-29 17:45:00,57.9,55.0,30.15,ESE,112,0.0,0.0,90,0.00,,,0.17,WUHU21623XXSP,2013-05-29 21:45:00,
2013-05-29 17:50:00,57.9,55.0,30.15,ESE,112,0.0,0.0,90,0.00,,,0.17,WUHU21623XXSP,2013-05-29 21:50:00,
2013-05-29 17:55:00,57.9,55.0,30.14,ESE,112,0.0,0.0,90,0.00,,,0.17,WUHU21623XXSP,2013-05-29 21:55:00,
2013-05-29 18:00:00,57.9,55.0,30.14,ESE,112,0.0,0.0,90,0.00,,,0.17,WUHU21623XXSP,2013-05-29 22:00:00,
2013-05-29 18:05:00,57.9,55.0,30.14,ESE,112,0.0,0.0,90,0.00,,,0.17,WUHU21623XXSP,2013-05-29 22:05:00,
2013-05-29 18:10:00,57.9,55.0,30.13,ESE,112,0.0,0.0,90,0.00,,,0.17,WUHU21623XXSP,2013-05-29 22:10:00,
2013-05-29 18:15:00,57.9,55.0,30.13,ESE,112,0.0,0.0,90,0.00,,,0.17,WUHU21623XXSP,2013-05-29 22:15:00,
2013-05-29 18:20:00,57.9,55.0,30.13,ESE,112,0.0,0.0,90,0.00,,,0.17,WUHU21623XXSP,2013-05-29 22:20:00,
2013-05-29 18:25:00,57.9,55.0,30.14,ESE,112,0.0,0.0,90,0.00,,,0.17,WUHU21623XXSP,2013-05-29 22:25:00,
2013-05-29 18:30:00,57.7,54.9,30.14,ESE,112,0.0,0.0,90,0.00,,,0.17,WUHU21623XXSP,2013-05-29 22:30:00,
2013-05-29 18:35:00,57.7,54.9,30.14,ESE,112,0.0,0.0,90,0.00,,,0.17,WUHU21623XXSP,2013-05-29 22:35:00,
2013-05-29 18:40:00,57.7,54.9,30.14,ESE,112,0.0,0.0,90,0.00,,,0.17,WUHU21623XXSP,2013-05-29 22:40:00,
2013-05-29 18:45:00,57.7,55.1,30.14,ESE,112,0.0,0.0,91,0.00,,,0.17,WUHU21623XXSP,2013-05-29 22:45:00,
2013-05-29 18:50:00,57.6,55.0,30.14,ESE,112,0.0,0.0,91,0.00,,,0.17,WUHU21623XXSP,2013-05-29 22:50:00,
2013-05-29 18:55:00,57.6,55.0,30.14,ESE,112,0.0,0.0,91,0.00,,,0.17,WUHU21623XXSP,2013-05-29 22:55:00,
2013-05-29 19:00:00,57.4,54.8,30.15,ESE,112,0.0,0.0,91,0.00,,,0.17,WUHU21623XXSP,2013-05-29 23:00:00,
2013-05-29 19:05:00,57.4,54.8,30.15,ESE,112,0.0,0.0,91,0.00,,,0.17,WUHU21623XXSP,2013-05-29 23:05:00,
2013-05-29 19:10:00,57.4,54.8,30.14,ESE,112,0.0,0.0,91,0.00,,,0.17,WUHU21623XXSP,2013-05-29 23:10:00,
2013-05-29 19:15:00,57.4,54.8,30.14,ESE,112,0.0,0.0,91,0.00,,,0.17,WUHU21623XXSP,2013-05-29 23:15:00,
2013-05-29 19:20:00,57.4,54.8,30.14,ESE,112,0.0,0.0,91,0.00,,,0.17,WUHU21623XXSP,2013-05-29 23:20:00,
2013-05-29 19:25:00,57.2,54.4,30.14,ESE,112,0.0,0.0,91,0.00,,,0.17,WUHU21623XXSP,2013-05-29 23:25:00,
2013-05-29 19:30:00,57.0,54.4,30.14,ESE,112,0.0,0.0,91,0.00,,,0.17,WUHU21623XXSP,2013-05-29 23:30:00,
2013-05-29 19:35:00,57.0,54.4,30.14,ESE,112,0.0,0.0,91,0.00,,,0.17,WUHU21623XXSP,2013-05-29 23:35:00,
2013-05-29 19:40:00,57.0,54.4,30.14,ESE,112,0.0,0.0,91,0.00,,,0.17,WUHU21623XXSP,2013-05-29 23:40:00,
2013-05-29 19:45:00,57.0,54.4,30.14,ESE,112,0.0,0.0,91,0.00,,,0.17,WUHU21623XXSP,2013-05-29 23:45:00,
2013-05-29 19:50:00,57.0,54.4,30.14,ESE,112,0.0,0.0,91,0.00,,,0.17,WUHU21623XXSP,2013-05-29 23:50:00,
2013-05-29 19:55:00,56.8,54.2,30.14,ESE,112,0.0,0.0,91,0.00,,,0.17,WUHU21623XXSP,2013-05-29 23:55:00,
2013-05-29 20:00:00,56.8,54.2,30.14,ESE,112,0.0,0.0,91,0.00,,,0.17,WUHU21623XXSP,2013-05-30 00:00:00,
2013-05-29 20:05:00,56.8,54.2,30.14,ESE,112,0.0,0.0,91,0.00,,,0.17,WUHU21623XXSP,2013-05-30 00:05:00,
2013-05-29 20:10:00,56.8,54.2,30.13,ESE,112,0.0,0.0,91,0.00,,,0.17,WUHU21623XXSP,2013-05-30 00:10:00,
2013-05-29 20:15:00,56.8,54.2,30.13,ESE,112,0.0,0.0,91,0.00,,,0.17,WUHU21623XXSP,2013-05-30 00:15:00,
2013-05-29 20:20:00,56.8,54.2,30.14,ESE,112,0.0,0.0,91,0.02,,,0.19,WUHU21623XXSP,2013-05-30 00:20:00,
2013-05-29 20:25:00,56.8,54.2,30.14,ESE,112,0.0,0.0,91,0.02,,,0.19,WUHU21623XXSP,2013-05-30 00:25:00,
2013-05-29 20:30:00,56.8,54.2,30.14,ESE,112,0.0,0.0,91,0.02,,,0.19,WUHU21623XXSP,2013-05-30 00:30:00,
2013-05-29 20:35:00,56.8,54.2,30.14,ESE,112,0.0,0.0,91,0.02,,,0.19,WUHU21623XXSP,2013-05-30 00:35:00,
2013-05-29 20:40:00,56.8,54.2,30.14,ESE,112,0.0,0.0,91,0.02,,,0.19,WUHU21623XXSP,2013-05-30 00:40:00,
2013-05-29 20:45:00,56.8,54.2,30.13,ESE,112,0.0,0.0,91,0.04,,,0.21,WUHU21623XXSP,2013-05-30 00:45:00,
2013-05-29 20:50:00,56.8,54.2,30.14,ESE,112,0.0,0.0,91,0.04,,,0.21,WUHU21623XXSP,2013-05-30 00:50:00,
2013-05-29 20:55:00,56.8,54.2,30.14,ESE,112,0.0,0.0,91,0.04,,,0.21,WUHU21623XXSP,2013-05-30 00:55:00,
2013-05-29 21:00:00,56.8,54.2,30.14,ESE,112,0.0,0.0,91,0.04,,,0.21,WUHU21623XXSP,2013-05-30 01:00:00,
2013-05-29 21:05:00,56.8,54.2,30.13,ESE,112,0.0,0.0,91,0.06,,,0.23,WUHU21623XXSP,2013-05-30 01:05:00,
2013-05-29 21:10:00,56.7,54.1,30.13,SE,135,0.0,0.0,91,0.06,,,0.23,WUHU21623XXSP,2013-05-30 01:10:00,
2013-05-29 21:15:00,56.5,53.9,30.13,SE,135,0.0,0.0,91,0.08,,,0.25,WUHU21623XXSP,2013-05-30 01:15:00,
2013-05-29 21:20:00,56.7,54.1,30.13,SE,135,0.0,0.0,91,0.06,,,0.25,WUHU21623XXSP,2013-05-30 01:20:00,
2013-05-29 21:25:00,56.5,53.9,30.13,SE,135,0.0,0.0,91,0.06,,,0.25,WUHU21623XXSP,2013-05-30 01:25:00,
2013-05-29 21:30:00,56.5,53.9,30.13,SE,135,0.0,0.0,91,0.06,,,0.25,WUHU21623XXSP,2013-05-30 01:30:00,
2013-05-29 21:35:00,56.5,53.9,30.13,SE,135,0.0,0.0,91,0.06,,,0.25,WUHU21623XXSP,2013-05-30 01:35:00,
2013-05-29 21:40:00,56.5,53.9,30.12,SE,135,0.0,0.0,91,0.04,,,0.25,WUHU21623XXSP,2013-05-30 01:40:00,
2013-05-29 21:45:00,56.5,53.9,30.13,SE,135,0.0,0.0,91,0.04,,,0.25,WUHU21623XXSP,2013-05-30 01:45:00,
2013-05-29 21:50:00,56.5,53.9,30.13,SE,135,0.0,0.0,91,0.04,,,0.25,WUHU21623XXSP,2013-05-30 01:50:00,
2013-05-29 21:55:00,56.5,53.9,30.13,SE,135,0.0,0.0,91,0.04,,,0.25,WUHU21623XXSP,2013-05-30 01:55:00,
2013-05-29 22:00:00,56.5,53.9,30.12,SE,135,0.0,0.0,91,0.02,,,0.25,WUHU21623XXSP,2013-05-30 02:00:00,
2013-05-29 22:05:00,56.5,53.9,30.12,SE,135,0.0,0.0,91,0.02,,,0.25,WUHU21623XXSP,2013-05-30 02:05:00,
2013-05-29 22:10:00,56.5,53.9,30.12,SE,135,0.0,0.0,91,0.00,,,0.25,WUHU21623XXSP,2013-05-30 02:10:00,
2013-05-29 22:15:00,56.5,53.9,30.12,SE,135,0.0,0.0,91,0.00,,,0.25,WUHU21623XXSP,2013-05-30 02:15:00,
2013-05-29 22:20:00,56.5,53.9,30.13,SE,135,0.0,0.0,91,0.00,,,0.25,WUHU21623XXSP,2013-05-30 02:20:00,
2013-05-29 22:25:00,56.5,53.9,30.13,SE,135,0.0,0.0,91,0.00,,,0.25,WUHU21623XXSP,2013-05-30 02:25:00,
2013-05-29 22:30:00,56.5,53.9,30.13,SE,135,0.0,0.0,91,0.00,,,0.25,WUHU21623XXSP,2013-05-30 02:30:00,
2013-05-29 22:35:00,56.5,53.9,30.13,SE,135,0.0,0.0,91,0.00,,,0.25,WUHU21623XXSP,2013-05-30 02:35:00,
2013-05-29 22:40:00,56.5,53.9,30.13,SE,135,0.0,0.0,91,0.00,,,0.25,WUHU21623XXSP,2013-05-30 02:40:00,
2013-05-29 22:45:00,56.7,54.1,30.13,SE,135,0.0,0.0,91,0.00,,,0.25,WUHU21623XXSP,2013-05-30 02:45:00,
2013-05-29 22:50:00,56.8,54.2,30.13,SE,135,0.0,0.0,91,0.00,,,0.25,WUHU21623XXSP,2013-05-30 02:50:00,
2013-05-29 22:55:00,56.8,54.2,30.13,SE,135,0.0,0.0,91,0.00,,,0.25,WUHU21623XXSP,2013-05-30 02:55:00,
2013-05-29 23:00:00,56.8,54.2,30.13,SE,135,0.0,0.0,91,0.00,,,0.25,WUHU21623XXSP,2013-05-30 03:00:00,
2013-05-29 23:05:00,56.8,54.2,30.13,SE,135,0.0,0.0,91,0.00,,,0.25,WUHU21623XXSP,2013-05-30 03:05:00,
2013-05-29 23:10:00,56.8,54.2,30.14,SE,135,0.0,0.0,91,0.00,,,0.25,WUHU21623XXSP,2013-05-30 03:10:00,
2013-05-29 23:15:00,56.8,54.2,30.14,SE,135,0.0,0.0,91,0.00,,,0.25,WUHU21623XXSP,2013-05-30 03:15:00,
2013-05-29 23:20:00,56.8,54.2,30.14,SE,135,0.0,0.0,91,0.00,,,0.25,WUHU21623XXSP,2013-05-30 03:20:00,
2013-05-29 23:25:00,56.8,54.2,30.14,SE,135,0.0,0.0,91,0.00,,,0.25,WUHU21623XXSP,2013-05-30 03:25:00,
2013-05-29 23:30:00,56.8,54.2,30.14,SE,135,0.0,0.0,91,0.00,,,0.25,WUHU21623XXSP,2013-05-30 03:30:00,
2013-05-29 23:35:00,56.8,54.2,30.13,SE,135,0.0,0.0,91,0.00,,,0.25,WUHU21623XXSP,2013-05-30 03:35:00,
2013-05-29 23:40:00,56.5,53.9,30.13,SE,135,0.0,0.0,91,0.00,,,0.25,WUHU21623XXSP,2013-05-30 03:40:00,
2013-05-29 23:45:00,56.5,53.9,30.14,SE,135,0.0,0.0,91,0.00,,,0.25,WUHU21623XXSP,2013-05-30 03:45:00,
2013-05-29 23:50:00,56.5,53.9,30.13,SE,135,0.0,0.0,91,0.00,,,0.25,WUHU21623XXSP,2013-05-30 03:50:00,
2013-05-29 23:55:00,56.5,53.9,30.14,SE,135,0.0,0.0,91,0.00,,,0.25,WUHU21623XXSP,2013-05-30 03:55:00,